Flag for U.S.A. Weather past 2 weeks in Wheaton, Illinois, U.S.A.

Now
53 °F

Clear.


Feels Like: 53 °F
Forecast: 51 / 73 °F
Wind: 3 mph from Southeast

Location: Dupage Airport

Current Time: Sep 19, 2014 at 7:10:45 AM

Latest Report: Sep 19, 2014 at 5:52 AM


Visibility: 9 mi

Pressure: 30.15 "Hg

Humidity: 86%

Dew point: 49 °F

Location of WheatonLocation

Historic Weather in Wheaton — Graph

°F

Wheaton temperature yesterday

Maximum temperature yesterday: 71 °F (at 2:52 PM)
Minimum temperature yesterday: 45 °F (at 5:52 AM)
Average temperature yesterday: 58 °F

Past Weeks' High & Low Weather Summary

 TemperatureHumidityPressure
High88 °F (Sep 5, 1:52 PM)97% (Sep 14, 6:52 AM)30.39 "Hg (Sep 14, 6:52 AM)
Low40 °F (Sep 13, 3:52 AM)33% (Sep 7, 3:52 PM)29.50 "Hg (Sep 10, 9:52 AM)
Average61 °F75%30.09 "Hg
* Reported Sep 4 5:52 AM — Sep 19 5:52 AM, Wheaton, Weather by CustomWeather, © 2014

Note: Actual official high and low records may vary slightly from our data, if they occured in-between our weather recording intervals... More about our weather records

Advertising

Wheaton weather history for previous 24 hours

 ConditionsComfort  
Time TempWeatherWind HumidityBarometerVisibility
5:52 AM
Sep 19
53 °FClear.3 mph86%30.15 "Hg9 mi
4:52 AM53 °FClear.6 mph89%30.13 "Hg8 mi
3:52 AM55 °FFog.3 mph93%30.13 "Hg5 mi
2:52 AM56 °FFog.5 mph93%30.12 "Hg2 mi
1:52 AM56 °FFog.6 mph93%30.15 "Hg3 mi
12:52 AM56 °FFog.5 mph93%30.15 "Hg3 mi
11:52 PM
Sep 18
52 °FFog.5 mph93%30.16 "Hg5 mi
10:52 PM54 °FClear.3 mph93%30.15 "Hg7 mi
9:52 PM56 °FClear.6 mph87%30.14 "Hg9 mi
8:52 PM56 °FClear.6 mph87%30.14 "Hg10 mi
7:52 PM58 °FSunny.9 mph84%30.13 "Hg10 mi
6:52 PM61 °FSunny.10 mph78%30.11 "Hg10 mi
5:52 PM66 °FSunny.10 mph65%30.11 "Hg10 mi
4:52 PM68 °FSunny.10 mph59%30.10 "Hg10 mi
3:52 PM71 °FPassing clouds.9 mph53%30.10 "Hg10 mi
2:52 PM71 °FPartly sunny.8 mph53%30.11 "Hg10 mi
1:52 PM70 °FScattered clouds.9 mph55%30.12 "Hg10 mi
12:52 PM69 °FScattered clouds.8 mph59%30.14 "Hg10 mi
11:52 AM68 °FPartly sunny.7 mph63%30.14 "Hg10 mi
10:52 AM64 °FPartly sunny.6 mph73%30.15 "Hg10 mi
9:52 AM60 °FLow clouds.3 mph83%30.16 "Hg6 mi
9:00 AM56 °FFog.5 mph93%30.15 "Hg4 mi
7:52 AM52 °FFog.7 mph97%30.13 "Hg1 mi
Weather by CustomWeather, © 2014

See weather overviewHow to use our weather pages